Showing default

HEAD-3B, 57627

Orbit data source: Space-Track

HEAD-3B, 57627 is a payload satellite owned by HEAD (CN) in LEO that was launched on Mon, 14 Aug 2023 UTC via a KUAIZHOU-1A launch vehicle from the Xichang Space Center, China (XSC). Payload-class satellites include a variety of spacecraft equipped with specific instruments for various scientific and technological missions. These include communications satellites like Starlink; space stations such as the ISS; scientific satellites like the Hubble; Earth observation satellites from companies like Planet Labs, Umbra, and HawkEye 360; GPS; miniature CubeSats for education and research; and military/defense satellites.

Loading next visibility...
Identifier
57627, 2023-121B
Orbit
LEO
Country
Flag of CNCN / PRC
Related business
Manufacturer
IMI/CAS
Mission
Operational Commercial Communications
Bus & Motor
WN100, Unknown motor
Mass
40 kg wet, 40 kg dry
Launch date (UTC)
2023-08-14 (3 years ago)
Launch vehicle
KUAIZHOU-1A
Launch site
Xichang Space Center, China (XSC)
Object type
Payload
Rocket body
Debris
Shape & HBR
Box + 2 Pan, 1.0 m
Radar Cross Section
0.223 m², Medium (>0.1 m² and < 1m²)

Expand to show TLE details & history
Last TLE update: 1 day ago

TLE from 1 day ago
0 HEAD-3B
1 57627U 23121B   26172.53165939  .00000550  00000-0  14164-3 0  9994
2 57627  45.0032 283.5154 0006337 282.8324  77.1825 14.61594963152308
Epoch: 2026-06-21T12:45Z
TLE epoch observation values (Epoch: 2026-06-21T12:45:35.371Z)
Latitude
-0.00003°
Longitude
-177.6126°
Altitude
687.037 km
Speed
7.515 km/s
True Right ascension
18h 54m 03s
True Declination
0° 00' 00"
Sunlit
Object was in full shadow at epoch
Visualization orbit readout
Latitude
Unknown
Longitude
Unknown
Altitude
Unknown
Speed
Unknown
Apparent Right ascension
Unknown
Apparent Declination
Unknown
Sunlit
N/A
Visualization observer readout
Local Sidereal Time
00:39:42
Azimuth
Unknown
Elevation
Unknown
Doppler factor
Unknown
Orbital elements
Apogee altitude
694.07 km
Perigee altitude
685.112 km
Semi-major axis
7,067.728 km
Eccentricity
0.00063
Inclination
45.0032°
RAAN
283.5154°
Arg. of periapsis
282.8324°
True anomaly
77.25332°
Mean anomaly
77.1825°
Eccentric anomaly
77.21791°
Mean motion
3.65278 °/min
Orbital period
98.56 mins
BSTAR
0.00014164
Loading maneuver chart data...
Computing Atmospheric mass density...
Loading historical data...
Loading historical data...
Loading historical data...
Loading historical data...
Loading historical data...
Loading historical data...
Loading historical data...
Other satellites on launch #121 in the year 2023 (2023-08-14 UTC)

Documentation

Showing up to 5 results
|